Regional Weather Roundup
Issued by NWS

Home | Current Version | Previous Version | Text Only | Print | Product List | Glossary Off
Versions: 1 2 3 4 5 6 7 8 9 10 11 12 13 14 15 16 17 18 19 20 21 22 23 24 25 26 27 28 29 30 31 32 33 34 35 36 37 38 39 40 41 42 43 44 45 46 47 48 49 50

531
ASUS43 KDMX 161306
RWRIA

WEATHER ROUNDUP FOR IOWA
NATIONAL WEATHER SERVICE DES MOINES IA
700 AM CST MON JAN 16 2017

NOTE: "FAIR" INDICATES FEW OR NO CLOUDS BELOW 12,000 FEET WITH NO
SIGNIFICANT WEATHER AND/OR OBSTRUCTIONS TO VISIBILITY.

* - THESE STATIONS ARE NOT NWS STATIONS...THUS NOT UNDER NWS
QUALITY CONTROL.  THEY ALSO DO NOT REPORT WEATHER SUCH
AS PRECIPITATION OR FOG.

IAZ001>003-012>014-020>022-031>034-043>046-161400-
   NORTHWEST IOWA

CITY           SKY/WX    TMP DP  RH WIND       PRES   REMARKS
CARROLL *      CLOUDY    32  32 100 E8        30.07S FOG     WCI  25
CHEROKEE *     MIX PCPN  31  31 100 E6        30.08S WCI  25
DENISON *      CLOUDY    32  30  93 E9        30.02F WCI  24
LE MARS *      CLOUDY    30  30 100 NE6       30.08S FOG     WCI  24
ORANGE CITY *  MIX PCPN  28  28 100 E5        30.06F WCI  23
SHELDON *      CLOUDY    28  28 100 E6        30.06F WCI  22
SIOUX CITY     CLOUDY    34  31  88 NE8       30.05F WCI  27
SPENCER        CLOUDY    28  27  96 E6        30.08F FOG     WCI  22
STORM LAKE *   CLOUDY    30  30 100 E13       30.06F FOG     WCI  20
$$

IAZ055>058-069>071-079>083-090>094-161400-
   SOUTHWEST IOWA

CITY           SKY/WX    TMP DP  RH WIND       PRES   REMARKS
ATLANTIC *     CLOUDY    32  32 100 E10       30.03S FOG     WCI  24
AUDUBON *      CLOUDY    30  28  93 E9        30.05F FOG     WCI  22
CLARINDA *     CLOUDY    34  34 100 NE13      29.99F FOG     WCI  25
COUNCIL BLFS * CLOUDY    32  32 100 NE10G17   30.00F FOG     WCI  24
CRESTON *      LGT RAIN  32  32 100 E14G21    30.03S WCI  22
HARLAN  *      CLOUDY    32  32 100 NE9G16    30.05F WCI  24
LAMONI         MIX PCPN  32  31  96 E12G17    30.02F FOG     WCI  23
RED OAK *      LGT RAIN  32  32 100 NE16      30.00F WCI  21
SHENANDOAH *   RAIN      32  32 100 NE10G17   29.98F WCI  24
$$

IAZ047>049-059>061-072>074-084-161400-
   CENTRAL IOWA

CITY           SKY/WX    TMP DP  RH WIND       PRES   REMARKS
AMES           CLOUDY    31  31 100 E7        30.10F FOG     WCI  24
ANKENY *       CLOUDY    32  30  93 MISG      30.10F FOG
BOONE *        CLOUDY    30  30 100 MISG      30.08F FOG
CHARITON *     LGT RAIN  32  32 100 E9        30.07S WCI  24
DES MOINES     FRZ RAIN  32  31  96 E9        30.08F FOG     WCI  24
GRINNELL*      MIX PCPN  31  31  97 E10       30.11F WCI  23
KNOXVILLE *    MIX PCPN  32  30  93 E9G16     30.08F WCI  24
MARSHALLTOWN   CLOUDY    30  30 100 E12       30.11F FOG     WCI  20
NEWTON *       CLOUDY    30  30 100 E10       30.10F FOG     WCI  21
PELLA *        DRIZZLE   32  31  98 E8        30.11F WCI  25
PERRY *        CLOUDY    32  32 100 E8        30.08F FOG     WCI  24
$$

IAZ004>006-015-016-023>025-035-036-161400-
   NORTH CENTRAL IOWA

CITY           SKY/WX    TMP DP  RH WIND       PRES   REMARKS
ALGONA *       CLOUDY    30  30 100 SE8       30.10F FOG     WCI  23
CLARION *      CLOUDY    32  32 100 SE9       30.11F FOG     WCI  24
ESTHERVILLE    CLOUDY    27  27 100 SE6       30.09F FOG     WCI  20
FORT DODGE *   CLOUDY    30  28  93 CALM      30.11F
MASON CITY     FRZ RAIN  29  27  92 E9        30.13F FOG     WCI  20
FOREST CITY *  MIX PCPN  30  28  93 E7        30.11F WCI  23
WEBSTER CITY * CLOUDY    32  32 100 E8        30.09F FOG     WCI  25
IOWA FALLS *   CLOUDY    32  30  94 E8        30.13S FOG     WCI  25
$$

IAZ007>011-017>019-026>030-037>042-050>054-066-161400-
   NORTHEAST IOWA

CITY           SKY/WX    TMP DP  RH WIND       PRES   REMARKS
CEDAR RAPIDS   FRZ RAIN  31  29  92 E12       30.14F FOG     WCI  22
CHARLES CITY * CLOUDY    30  30 100 E9        30.15F FOG     WCI  22
CLINTON *      MIX PCPN  32  30  92 E12       30.20F FOG     WCI  23
DECORAH *      MIX PCPN  28  27  93 VRB6      30.16F WCI  22
DUBUQUE        MIX PCPN  30  28  92 SE10      30.18F FOG     WCI  21
MONTICELLO *   CLOUDY    32  30  93 E6G12     30.18S FOG     WCI  26
OELWEIN *      CLOUDY    30  30 100 E10       30.15F FOG     WCI  21
WATERLOO       MIX PCPN  31  29  92 E8        30.15F FOG     WCI  23
$$

IAZ064-065-067-068-078-161400-
   EAST CENTRAL IOWA

CITY           SKY/WX    TMP DP  RH WIND       PRES   REMARKS
DAVENPORT      FRZ RAIN  32  30  92 E13       30.19F FOG     WCI  22
IOWA CITY      FRZ RAIN  33  31  92 E7        30.18F FOG     WCI  27
MUSCATINE *    MIX PCPN  34  32  93 E8        30.18F WCI  27
QUAD CITIES    CLOUDY    33  30  88 E10       30.19F FOG     WCI  25
$$

IAZ062-063-075>077-085>089-095>099-161400-
   SOUTHEAST IOWA

CITY           SKY/WX    TMP DP  RH WIND       PRES   REMARKS
BURLINGTON     MIX PCPN  32  32 100 E8        30.15F FOG     WCI  25
FAIRFIELD *    CLOUDY    32  32 100 E13       30.12F FOG     WCI  22
FORT MADISON * LGT SNOW  34  30  86 E9        30.15F VSB 1   WCI  26
KEOKUK *       LGT RAIN  34  34 100 E10       30.13S WCI  26
OSKALOOSA *    RAIN      32  31  97 E10       30.12S WCI  23
CENTERVILLE *  LGT RAIN  32  32 100 E3        30.09S
OTTUMWA        FRZ RAIN  32  30  92 E13       30.10F FOG     WCI  22
WASHINGTON *   CLOUDY    32  32 100 E13       30.16S FOG     WCI  22
$$

ABBREVIATIONS USED IN REMARKS
   TC - TEMPERATURES IN CELSIUS
  WCI - WIND CHILL INDEX
   HX - HEAT INDEX
  VSB - VISIBILITY
$$





USA.gov is the U.S. government's official web portal to all federal, state and local government web resources and services.